FW1304 Weather Reports


time (UTC)temp
C
wind
direction
speed
KPH
gust
KPH
rain 1hr
cm
rain 24hr
cm
rain mn
cm
humidity
%
barometer
mb
20260502212827 18 222 0.0 8.0 0.00 0.00 0.00 34 1009.0
20260502212314 18 210 0.0 6.4 0.00 0.00 0.00 33 1009.1
20260502211831 18 236 0.0 6.4 0.00 0.00 0.00 34 1009.2
20260502211314 18 300 0.0 12.9 0.00 0.00 0.00 32 1009.3
20260502210822 18 232 3.2 12.9 0.00 0.00 0.00 31 1009.4
20260502210319 18 288 0.0 9.7 0.00 0.00 0.00 32 1009.5
20260502205841 18 251 1.6 9.7 0.00 0.00 0.00 31 1009.6
20260502205317 18 248 0.0 9.7 0.00 0.00 0.00 31 1009.6
20260502204826 19 281 1.6 8.0 0.00 0.00 0.00 31 1009.7
20260502204329 19 207 1.6 8.0 0.00 0.00 0.00 31 1009.8
20260502203825 19 256 0.0 3.2 0.00 0.00 0.00 33 1009.9
20260502203328 19 279 0.0 8.0 0.00 0.00 0.00 32 1010.0
20260502202841 18 237 1.6 9.7 0.00 0.00 0.00 33 1010.1
20260502202336 18 244 1.6 6.4 0.00 0.00 0.00 33 1010.2
20260502201824 18 241 1.6 6.4 0.00 0.00 0.00 33 1010.3
20260502201320 18 245 1.6 6.4 0.00 0.00 0.00 33 1010.5
20260502200817 17 241 3.2 6.4 0.00 0.00 0.00 33 1010.6
20260502200325 17 226 1.6 8.0 0.00 0.00 0.00 34 1010.7
20260502195829 18 273 1.6 8.0 0.00 0.00 0.00 33 1010.8
20260502195346 18 222 1.6 11.3 0.00 0.00 0.00 33 1010.8
20260502194820 18 213 1.6 11.3 0.00 0.00 0.00 34 1010.9
20260502194324 17 148 1.6 9.7 0.00 0.00 0.00 34 1011.0
20260502193832 17 212 0.0 8.0 0.00 0.00 0.00 37 1011.2
20260502193348 17 221 0.0 8.0 0.00 0.00 0.00 35 1011.3
20260502192829 17 213 0.0 8.0 0.00 0.00 0.00 34 1011.4
20260502192346 17 251 1.6 6.4 0.00 0.00 0.00 34 1011.5
20260502191837 17 232 1.6 6.4 0.00 0.00 0.00 33 1011.6
20260502191335 17 251 0.0 6.4 0.00 0.00 0.00 36 1011.7
20260502190822 17 271 1.6 8.0 0.00 0.00 0.00 34 1011.9
20260502190338 17 246 0.0 8.0 0.00 0.00 0.00 35 1012.0
20260502185842 17 229 1.6 6.4 0.00 0.00 0.00 34 1012.1
20260502185329 17 244 1.6 6.4 0.00 0.00 0.00 35 1012.1
20260502184825 17 192 0.0 6.4 0.00 0.00 0.00 34 1012.2
20260502184320 17 271 1.6 6.4 0.00 0.00 0.00 34 1012.4
20260502183816 16 186 0.0 6.4 0.00 0.00 0.00 36 1012.4
20260502183332 16 244 1.6 6.4 0.00 0.00 0.00 34 1012.5
20260502182835 16 227 0.0 9.7 0.00 0.00 0.00 34 1012.6
20260502182323 16 210 0.0 6.4 0.00 0.00 0.00 36 1012.7
20260502181821 16 231 0.0 8.0 0.00 0.00 0.00 34 1012.7
20260502181321 16 236 1.6 8.0 0.00 0.00 0.00 35 1012.9
20260502180857 16 275 1.6 6.4 0.00 0.00 0.00 35 1012.9
20260502180323 15 179 0.0 11.3 0.00 0.00 0.00 36 1013.1
20260502170337 14 205 1.6 8.0 0.00 0.00 0.00 36 1014.1
20260502164322 13 205 1.6 8.0 0.00 0.00 0.00 36 1014.4
20260502163817 14 214 0.0 6.4 0.00 0.00 0.00 37 1014.4
20260502163323 14 205 0.0 6.4 0.00 0.00 0.00 39 1014.5
20260502162819 13 225 0.0 3.2 0.00 0.00 0.00 40 1014.6
20260502162316 13 192 0.0 6.4 0.00 0.00 0.00 38 1014.6
20260502161832 13 197 0.0 9.7 0.00 0.00 0.00 38 1014.8
20260502161335 13 212 0.0 9.7 0.00 0.00 0.00 39 1014.7
20260502160824 13 250 1.6 6.4 0.00 0.00 0.00 39 1014.9
20260502160340 13 208 0.0 3.2 0.00 0.00 0.00 39 1015.0
20260502152328 12 226 0.0 3.2 0.00 0.00 0.00 42 1015.3
20260502151841 12 248 1.6 4.8 0.00 0.00 0.00 40 1015.4
20260502151324 12 246 0.0 6.4 0.00 0.00 0.00 41 1015.4
20260502150901 12 211 1.6 4.8 0.00 0.00 0.00 41 1015.5
20260502150328 12 275 0.0 1.6 0.00 0.00 0.00 43 1015.5
20260502130334 5 246 0.0 0.0 0.00 0.00 0.00 72 1016.3
20260502123325 3 248 0.0 0.0 0.00 0.00 0.00 79 1016.4
20260502122820 3 248 0.0 0.0 0.00 0.00 0.00 80 1016.4
20260502122336 3 248 0.0 0.0 0.00 0.00 0.00 82 1016.4
20260502121833 3 248 0.0 0.0 0.00 0.00 0.00 82 1016.4
20260502121317 3 248 0.0 0.0 0.00 0.00 0.00 82 1016.3
20260502120825 2 248 0.0 0.0 0.00 0.00 0.00 83 1016.3
20260502120322 2 248 0.0 0.0 0.00 0.00 0.00 83 1016.3
20260502115824 2 248 0.0 0.0 0.00 0.00 0.00 83 1016.3
20260502115340 2 248 0.0 0.0 0.00 0.00 0.00 83 1016.2
20260502114828 2 248 0.0 0.0 0.00 0.00 0.00 83 1016.3
20260502114330 2 248 0.0 0.0 0.00 0.00 0.00 83 1016.2
20260502113818 2 248 0.0 0.0 0.00 0.00 0.00 83 1016.2
20260502113314 2 248 0.0 0.0 0.00 0.00 0.00 83 1016.3
20260502112818 2 248 0.0 0.0 0.00 0.00 0.00 83 1016.3
20260502112335 2 248 0.0 0.0 0.00 0.00 0.00 83 1016.3
20260502111823 2 248 0.0 0.0 0.00 0.00 0.00 83 1016.3
20260502111322 2 248 0.0 0.0 0.00 0.00 0.00 82 1016.3
20260502110818 2 248 0.0 0.0 0.00 0.00 0.00 82 1016.3
20260502110325 2 248 0.0 0.0 0.00 0.00 0.00 82 1016.2
20260502105828 2 247 0.0 0.0 0.00 0.00 0.00 81 1016.2
20260502105326 2 244 0.0 0.0 0.00 0.00 0.00 81 1016.3
20260502104843 2 249 0.0 0.0 0.00 0.00 0.00 80 1016.3
20260502104324 2 246 0.0 0.0 0.00 0.00 0.00 78 1016.2
20260502103829 2 246 0.0 0.0 0.00 0.00 0.00 77 1016.2
20260502103325 2 245 0.0 0.0 0.00 0.00 0.00 77 1016.2
20260502102821 2 245 0.0 0.0 0.00 0.00 0.00 78 1016.2
20260502102338 2 245 0.0 0.0 0.00 0.00 0.00 78 1016.2
20260502101825 2 245 0.0 0.0 0.00 0.00 0.00 77 1016.1
20260502101323 2 245 0.0 0.0 0.00 0.00 0.00 77 1016.1
20260502100819 2 245 0.0 0.0 0.00 0.00 0.00 77 1016.1
20260502100327 2 245 0.0 0.0 0.00 0.00 0.00 76 1016.0
20260502091327 3 238 0.0 0.0 0.00 0.00 0.00 70 1015.9
20260502090823 3 243 0.0 0.0 0.00 0.00 0.00 70 1015.8
20260502090328 3 242 0.0 0.0 0.00 0.00 0.00 69 1015.8
20260502071331 5 257 0.0 0.0 0.00 0.00 0.00 61 1016.1
20260502070818 5 242 0.0 0.0 0.00 0.00 0.00 61 1016.1
20260502070335 5 242 0.0 0.0 0.00 0.00 0.00 61 1016.1
20260502065837 5 239 0.0 0.0 0.00 0.00 0.00 61 1016.1
20260502065325 5 238 0.0 0.0 0.00 0.00 0.00 61 1016.2
20260502064838 5 239 0.0 0.0 0.00 0.00 0.00 60 1016.2
20260502064321 5 241 0.0 0.0 0.00 0.00 0.00 60 1016.2
20260502063838 5 242 0.0 0.0 0.00 0.00 0.00 60 1016.3
20260502063325 5 243 0.0 0.0 0.00 0.00 0.00 60 1016.3
20260502062820 5 242 0.0 0.0 0.00 0.00 0.00 61 1016.3
20260502062316 5 240 0.0 0.0 0.00 0.00 0.00 61 1016.3
20260502061824 5 246 0.0 0.0 0.00 0.00 0.00 60 1016.3
20260502060822 6 242 0.0 0.0 0.00 0.00 0.00 60 1016.3
20260502060338 6 246 0.0 0.0 0.00 0.00 0.00 60 1016.3
20260502055822 5 244 0.0 0.0 0.00 0.00 0.00 60 1016.3
20260502055329 5 242 0.0 0.0 0.00 0.00 0.00 60 1016.3
20260502054826 5 244 0.0 0.0 0.00 0.00 0.00 60 1016.2
20260502054350 5 246 0.0 0.0 0.00 0.00 0.00 61 1016.2
20260502053817 5 238 0.0 0.0 0.00 0.00 0.00 60 1016.3
20260502053314 5 242 0.0 0.0 0.00 0.00 0.00 61 1016.3
20260502052817 5 249 0.0 0.0 0.00 0.00 0.00 64 1016.3
20260502052334 5 245 0.0 0.0 0.00 0.00 0.00 65 1016.3
20260502051822 5 246 0.0 0.0 0.00 0.00 0.00 67 1016.4
20260502051344 4 251 0.0 0.0 0.00 0.00 0.00 68 1016.4
20260502050901 4 251 0.0 0.0 0.00 0.00 0.00 68 1016.4
20260502050346 4 251 0.0 0.0 0.00 0.00 0.00 68 1016.4
20260502045829 4 251 0.0 0.0 0.00 0.00 0.00 68 1016.5
20260502045317 5 251 0.0 0.0 0.00 0.00 0.00 67 1016.4
20260502044832 5 251 0.0 0.0 0.00 0.00 0.00 66 1016.4
20260502044318 5 250 0.0 0.0 0.00 0.00 0.00 65 1016.4
20260502043824 5 250 0.0 0.0 0.00 0.00 0.00 65 1016.4
20260502043321 5 250 0.0 0.0 0.00 0.00 0.00 64 1016.4
20260502042843 5 250 0.0 0.0 0.00 0.00 0.00 65 1016.4
20260502042339 5 241 0.0 0.0 0.00 0.00 0.00 63 1016.4
20260502041834 5 248 0.0 0.0 0.00 0.00 0.00 60 1016.4
20260502041334 6 244 0.0 0.0 0.00 0.00 0.00 59 1016.4
20260502040821 6 239 0.0 0.0 0.00 0.00 0.00 58 1016.4
20260502040338 6 239 0.0 0.0 0.00 0.00 0.00 56 1016.4
20260502035819 6 239 0.0 0.0 0.00 0.00 0.00 55 1016.5
20260502035337 7 239 0.0 0.0 0.00 0.00 0.00 51 1016.4
20260502034845 7 237 0.0 0.0 0.00 0.00 0.00 52 1016.4
20260502034331 7 239 0.0 0.0 0.00 0.00 0.00 50 1016.5
20260502033818 7 240 0.0 0.0 0.00 0.00 0.00 49 1016.4
20260502033335 7 240 0.0 0.0 0.00 0.00 0.00 48 1016.4
20260502032838 7 242 0.0 0.0 0.00 0.00 0.00 49 1016.4
20260502032325 7 242 0.0 0.0 0.00 0.00 0.00 48 1016.4
20260502031822 7 246 0.0 0.0 0.00 0.00 0.00 47 1016.4
20260502031327 7 247 0.0 0.0 0.00 0.00 0.00 47 1016.4
20260502030834 8 248 0.0 0.0 0.00 0.00 0.00 44 1016.4
20260502030400 8 248 0.0 0.0 0.00 0.00 0.00 43 1016.5
20260502025813 8 248 0.0 0.0 0.00 0.00 0.00 42 1016.4
20260502025346 8 248 0.0 0.0 0.00 0.00 0.00 42 1016.5
20260502024821 8 249 0.0 0.0 0.00 0.00 0.00 43 1016.4
20260502024324 8 252 0.0 0.0 0.00 0.00 0.00 44 1016.5
20260502023832 8 253 0.0 0.0 0.00 0.00 0.00 44 1016.5
20260502023328 8 253 0.0 0.0 0.00 0.00 0.00 43 1016.5
20260502022830 8 254 0.0 0.0 0.00 0.00 0.00 43 1016.4
20260502022316 8 254 0.0 0.0 0.00 0.00 0.00 44 1016.5
20260502021832 8 254 0.0 0.0 0.00 0.00 0.00 45 1016.4
20260502021335 8 256 0.0 0.0 0.00 0.00 0.00 48 1016.4
20260502020829 8 263 0.0 0.0 0.00 0.00 0.00 46 1016.3
20260502020337 8 263 0.0 0.0 0.00 0.00 0.00 43 1016.2
20260502015827 9 263 0.0 0.0 0.00 0.00 0.00 43 1016.1
20260502015315 9 263 0.0 0.0 0.00 0.00 0.00 42 1016.1
20260502014829 9 263 0.0 0.0 0.00 0.00 0.00 43 1016.0
20260502014333 9 274 0.0 0.0 0.00 0.00 0.00 45 1015.9
20260502013820 9 360 0.0 0.0 0.00 0.00 0.00 46 1015.9
20260502013318 10 360 0.0 0.0 0.00 0.00 0.00 45 1015.9
20260502012821 10 360 0.0 0.0 0.00 0.00 0.00 44 1015.8
20260502012333 10 360 0.0 0.0 0.00 0.00 0.00 42 1015.8
20260502011820 10 360 0.0 0.0 0.00 0.00 0.00 38 1015.8
20260502011317 10 360 0.0 0.0 0.00 0.00 0.00 37 1015.8
20260502010831 10 360 0.0 0.0 0.00 0.00 0.00 36 1015.8
20260502010318 10 360 0.0 0.0 0.00 0.00 0.00 36 1015.8
20260502005817 10 360 0.0 0.0 0.00 0.00 0.00 36 1015.8
20260502005315 10 360 0.0 0.0 0.00 0.00 0.00 35 1015.8
20260502004832 11 360 0.0 0.0 0.00 0.00 0.00 35 1015.7
20260502004334 11 360 0.0 0.0 0.00 0.00 0.00 35 1015.7
20260502003821 11 360 0.0 0.0 0.00 0.00 0.00 34 1015.7
20260502003337 11 360 0.0 0.0 0.00 0.00 0.00 34 1015.7
20260502002840 11 360 0.0 0.0 0.00 0.00 0.00 34 1015.8
20260502002327 11 360 0.0 0.0 0.00 0.00 0.00 35 1015.7
20260502001844 11 360 0.0 0.0 0.00 0.00 0.00 35 1015.8
20260502001346 11 360 0.0 0.0 0.00 0.00 0.00 35 1015.8
20260502000822 11 355 0.0 0.0 0.00 0.00 0.00 34 1015.8
20260502000339 11 360 0.0 0.0 0.00 0.00 0.00 34 1015.8
20260501235837 11 311 0.0 0.0 0.00 0.00 0.00 34 1015.8
20260501235333 11 334 0.0 0.0 0.00 0.00 0.00 34 1015.8
20260501234821 11 348 0.0 0.0 0.00 0.00 0.00 34 1015.8
20260501234323 11 330 0.0 0.0 0.00 0.00 0.00 34 1015.8
20260501233840 11 336 0.0 0.0 0.00 0.00 0.00 34 1015.8
20260501233327 11 317 0.0 0.0 0.00 0.00 0.00 34 1015.8
20260501232823 11 11 0.0 0.0 0.00 0.00 0.00 34 1015.9
20260501232320 11 360 0.0 0.0 0.00 0.00 0.00 34 1015.8
20260501231826 11 26 0.0 0.0 0.00 0.00 0.00 33 1015.8
20260501231330 11 13 0.0 0.0 0.00 0.00 0.00 33 1015.8
20260501230818 11 30 0.0 0.0 0.00 0.00 0.00 33 1015.8
20260501230334 11 10 0.0 0.0 0.00 0.00 0.00 32 1015.9
20260501225836 11 30 0.0 6.4 0.00 0.00 0.00 31 1015.9
20260501225324 11 26 0.0 9.7 0.00 0.00 0.00 31 1015.8
20260501224820 12 24 0.0 6.4 0.00 0.00 0.00 32 1015.8
20260501224323 12 250 0.0 1.6 0.00 0.00 0.00 32 1015.8
20260501223859 11 300 0.0 6.4 0.00 0.00 0.00 33 1015.8
20260501223326 12 32 0.0 6.4 0.00 0.00 0.00 32 1015.8
20260501222821 11 15 0.0 0.0 0.00 0.00 0.00 33 1015.8
20260501222333 11 344 0.0 0.0 0.00 0.00 0.00 34 1015.9
20260501221829 11 360 0.0 0.0 0.00 0.00 0.00 33 1015.9
20260501221333 11 26 0.0 0.0 0.00 0.00 0.00 34 1015.9
20260501220821 11 69 0.0 0.0 0.00 0.00 0.00 34 1015.9
20260501220337 11 15 0.0 6.4 0.00 0.00 0.00 32 1015.9
20260501215819 11 21 0.0 4.8 0.00 0.00 0.00 33 1015.9
20260501215355 11 350 0.0 0.0 0.00 0.00 0.00 33 1015.9
20260501214823 12 231 0.0 0.0 0.00 0.00 0.00 34 1015.9
20260501214326 12 11 0.0 1.6 0.00 0.00 0.00 34 1015.9
20260501213814 12 248 0.0 3.2 0.00 0.00 0.00 33 1016.0
20260501213329 12 284 0.0 3.2 0.00 0.00 0.00 34 1015.9